Philip, SD

3:33 AM MDT on September 25, 2016 (GMT -0600)
Philip

Weather History for KPHP - July, 2013

Change the Weather History Date:

Sunday, July 28, 2013

  Actual Average Record
Temperature  
Mean Temperature 69 °F 76 °F  
Max Temperature 83 °F 91 °F 109 °F (2006)
Min Temperature 55 °F 61 °F 41 °F (1971)
Degree Days  
Heating Degree Days 0 0  
Month to date heating degree days 3 3  
Since 1 June heating degree days 67 66  
Since 1 July heating degree days 3 3  
Cooling Degree Days 4 11  
Month to date cooling degree days 304 271  
Year to date cooling degree days 452 421  
Since 1 June cooling degree days 431 394  
Growing Degree Days 18 (Base 50)    
Moisture  
Dew Point 49 °F    
Average Humidity 51    
Maximum Humidity 66    
Minimum Humidity 35    
Precipitation  
Precipitation T in 0.04 in 0.71 in (1955)
Month to date precipitation 1.12 1.87  
Year to date precipitation 8.58 11.72  
Sea Level Pressure  
Sea Level Pressure 29.93 in    
Wind  
Wind Speed 12 mph (SE)    
Max Wind Speed 22 mph    
Max Gust Speed 29 mph    
Visibility 10 miles    
Events      
T = Trace of Precipitation, MM = Missing Value Source: NWS Daily Summary

Daily Weather History Graph

Daily Weather History Graph

Search for Another Location

Airport or City:

Trip Planner

Search our weather history database for the weather conditions in past years. The results will help you decide how hot, cold, wet, or windy it might be!

Date:

Astronomy

Jul. 28, 2013 Rise Set
Actual Time 5:30 AM MDT 8:14 PM MDT
Civil Twilight 4:56 AM MDT 8:48 PM MDT
Nautical Twilight 4:14 AM MDT 9:30 PM MDT
Astronomical Twilight 3:25 AM MDT 10:18 PM MDT
Moon 11:19 PM MDT (7/28) 12:31 PM MDT (7/28)
Length of Visible Light 15h 51m
Length of Day
14h 44m
Waning Gibbous, 60% of the Moon is Illuminated
Jul 28
Waning Gibbous
Jul 29
Last Quarter
Aug 6
New
Aug 14
First Quarter
Aug 20
Full

Hourly Weather History & Observations

Time (MDT) Temp. Heat Index Dew Point Humidity Pressure Visibility Wind Dir Wind Speed Gust Speed Precip Events Conditions
12:55 AM 62.1 °F - 44.1 °F 52% 29.99 in 10.0 mi ESE 10.4 mph - N/A   Overcast
1:55 AM 57.9 °F - 44.1 °F 60% 29.99 in 10.0 mi East 6.9 mph - N/A   Clear
2:55 AM 55.0 °F - 44.1 °F 67% 29.98 in 10.0 mi East 6.9 mph - N/A   Clear
3:55 AM 55.0 °F - 44.1 °F 67% 29.97 in 10.0 mi East 10.4 mph - N/A   Clear
4:55 AM 57.0 °F - 44.1 °F 62% 29.96 in 10.0 mi East 8.1 mph - N/A   Mostly Cloudy
5:55 AM 57.9 °F - 43.0 °F 58% 29.96 in 10.0 mi ESE 12.7 mph - N/A   Overcast
6:55 AM 59.0 °F - 44.1 °F 58% 29.96 in 10.0 mi ESE 13.8 mph 19.6 mph N/A   Overcast
7:55 AM 62.1 °F - 45.0 °F 53% 29.97 in 10.0 mi ESE 11.5 mph - N/A   Mostly Cloudy
8:55 AM 64.9 °F - 46.0 °F 50% 29.96 in 10.0 mi SE 12.7 mph - N/A   Overcast
9:55 AM 71.1 °F - 46.9 °F 42% 29.94 in 10.0 mi SSE 16.1 mph 23.0 mph N/A   Mostly Cloudy
10:55 AM 75.0 °F - 48.9 °F 40% 29.93 in 10.0 mi SSE 18.4 mph 26.5 mph N/A   Clear
11:55 AM 77.0 °F - 48.9 °F 37% 29.91 in 10.0 mi SE 19.6 mph 27.6 mph N/A   Clear
12:55 PM 81.0 °F - 50.0 °F 34% 29.89 in 10.0 mi SSE 17.3 mph 27.6 mph N/A   Scattered Clouds
1:55 PM 80.1 °F - 51.1 °F 36% 29.89 in 10.0 mi SSE 16.1 mph 27.6 mph N/A   Overcast
2:55 PM 80.1 °F 79.9 °F 53.1 °F 39% 29.88 in 10.0 mi SE 16.1 mph 21.9 mph N/A   Overcast
3:55 PM 78.1 °F - 53.1 °F 42% 29.88 in 10.0 mi South 16.1 mph 23.0 mph N/A   Scattered Clouds
4:55 PM 77.0 °F - 52.0 °F 42% 29.87 in 10.0 mi SSE 17.3 mph - N/A   Mostly Cloudy
5:55 PM 75.9 °F - 51.1 °F 42% 29.87 in 10.0 mi SSE 15.0 mph - N/A   Clear
6:55 PM 75.0 °F - 50.0 °F 41% 29.88 in 10.0 mi SSE 15.0 mph - N/A   Clear
7:55 PM 72.0 °F - 51.1 °F 48% 29.89 in 10.0 mi SE 12.7 mph - N/A   Mostly Cloudy
8:55 PM 70.0 °F - 53.1 °F 55% 29.92 in 10.0 mi SSE 8.1 mph - N/A   Overcast
9:55 PM 66.0 °F - 54.0 °F 65% 29.93 in 10.0 mi South 4.6 mph - 0.00 in   Overcast
10:55 PM 66.9 °F - 52.0 °F 59% 29.91 in 10.0 mi South 11.5 mph - N/A   Mostly Cloudy
11:55 PM 66.0 °F - 51.1 °F 59% 29.91 in 10.0 mi ESE 4.6 mph - N/A   Mostly Cloudy